sat.trackr.live / text

‹ back to catalog

STARLINK-2093

NORAD 47374 · 2021-005AB

PAYLOAD ACTIVE UNKNOWN

§ Identity

Operator
Country
US
Launch date
2021-01-20
Launch site
AFETR
Launch vehicle
Mass (kg)
RCS (m²)

Purposes: comms

External: N2YO · Heavens-Above · Gunter

§ Orbital elements

Epoch: 2026-07-03T05:14:22.689888Z

Period
87.68 min
Inclination
53.0220°
Eccentricity
0.0005171
Mean motion
16.42396893 rev/d
Perigee alt
156.1 km
Apogee alt
162.8 km
Semi-major
6,537.6 km
B*
5.0584e-4
RAAN
183.2972°
Arg perigee
298.2731°
Mean anomaly
61.7794°
Rev number
30,156

§ Raw data

STARLINK-20931 47374U 21005AB  26184.21831817  .09445617  12470-4  50584-3 0  99942 47374  53.0220 183.2972 0005171 298.2731  61.7794 16.42396893301567

JSON: /api/v1/satellites/47374 · /tle

For live sub-satellite position, see the globe view (requires WebGL).

§ Visibility from observer

Set your observer location to see the next 7 days of passes ≥ 10°. The values pass through the URL so the page stays shareable.

No JS? Fill the form by hand. The geolocation button needs JavaScript.